2024-159G

Last updated on Thu Sep 19 2024 00:02:04 GMT+0000 (Coordinated Universal Time)

1 61017U 24159G 24262.38898995 .00016802 00000+0 12628-2 0 9998 2 61017 49.9935 180.2773 0006486 316.8373 43.2065 15.02609691 1863
UTC large
Height (km)
Speed (km/s)
/
Latitude / Longitude
Inclination (degrees)
Orbital Period (minutes)
Azimuth
Elevation
Range (km)
Doppler Factor

Next 0 passes for location: London (51.5072 / 0.1276)

Sorry there are no passes over London.